This demonstration page uses our WeatherBlox Daily Observations layout. Learn more.

Left ArrowRight Arrow

Hourly Observations for September 13, 2021

Temp ( °F °C ) Dew Point ( °F °C ) Humidity (%) Winds ( mph kmh ) Pressure ( in mb ) Visibility ( mi km ) Precip ( " mm )
12:53 am 00:53 Clear 72 22.2 51 10.6 48 48 SE 7 11 29.94 1014 10 16 0.00 0.00
1:53 am 01:53 Clear 70 21.1 52 11.1 53 53 SE 6 9 29.94 1014 10 16 0.00 0.00
2:53 am 02:53 Clear 68 20 52 11.1 57 57 E 5 7 29.94 1014 10 16 0.00 0.00
3:53 am 03:53 Clear 69 20.6 54 12.2 59 59 ESE 7 11 29.94 1014 10 16 0.00 0.00
4:53 am 04:53 Clear 69 20.6 57 13.9 66 66 SE 9 15 29.94 1014 10 16 0.00 0.00
5:53 am 05:53 Clear 68 20 59 15 73 73 ESE 9 15 29.93 1014 10 16 0.00 0.00
6:53 am 06:53 Clear 67 19.4 61 16.1 81 81 E 9 15 29.94 1014 10 16 0.00 0.00
7:53 am 07:53 Sunny 67 19.4 62 16.7 84 84 ESE 10 17 29.95 1014 10 16 0.00 0.00
8:53 am 08:53 Sunny 70 21.1 63 17.2 79 79 SE 14 22 29.96 1015 10 16 0.00 0.00
9:53 am 09:53 Sunny 75 23.9 63 17.2 66 66 SE 16 26 29.96 1015 10 16 0.00 0.00
10:53 am 10:53 Sunny 79 26.1 62 16.7 56 56 SSE 15 24 29.96 1015 10 16 0.00 0.00
11:53 am 11:53 Sunny 82 27.8 61 16.1 49 49 SSE 15 24 29.96 1015 10 16 0.00 0.00
12:53 pm 12:53 Sunny 86 30 58 14.4 39 39 SSE 12 19 29.93 1014 10 16 0.00 0.00
1:53 pm 13:53 Sunny 89 31.7 54 12.2 30 30 S 14 22 29.90 1013 10 16 0.00 0.00
2:53 pm 14:53 Sunny 90 32.2 52 11.1 27 27 ESE 12 19 29.88 1012 10 16 0.00 0.00
3:53 pm 15:53 Sunny 92 33.3 52 11.1 26 26 S 13 20 29.84 1011 10 16 0.00 0.00
4:53 pm 16:53 Sunny 92 33.3 52 11.1 26 26 S 15 24 29.81 1010 10 16 0.00 0.00
5:53 pm 17:53 Sunny 92 33.3 50 10 24 24 S 9 15 29.80 1009 10 16 0.00 0.00
6:53 pm 18:53 Sunny 91 32.8 51 10.6 26 26 SSE 9 15 29.80 1009 10 16 0.00 0.00
7:53 pm 19:53 Sunny 88 31.1 53 11.7 30 30 SE 9 15 29.80 1009 10 16 0.00 0.00
8:53 pm 20:53 Clear 84 28.9 54 12.2 36 36 SE 12 19 29.81 1009 10 16 0.00 0.00
9:53 pm 21:53 Clear 82 27.8 55 12.8 40 40 SE 9 15 29.83 1010 10 16 0.00 0.00
10:53 pm 22:53 Clear 79 26.1 55 12.8 44 44 SE 10 17 29.84 1011 10 16 0.00 0.00
11:53 pm 23:53 Clear 79 26.1 56 13.3 45 45 SSE 12 19 29.83 1010 10 16 0.00 0.00

Powered by AerisWeather